Hourly Data Report for September 26, 2022

KAMLOOPS A
BRITISH COLUMBIA
Current Station Operator: NAVCAN

50°42'09.000" N
120°26'55.000" W
345.30 m
1163781
71887
YKA

Download Data

Hourly Data (September 2022)
Hourly Data Report for September 26, 2022
TIME
LST
Temp Definition
°C
Dew Point Definition
°C
Rel Hum Definition
%
Precip. Amount Definition
mm

Wind Dir Definition
10's deg

Wind Spd Definition
km/h
Visibility Definition
km
Stn Press Definition
kPa
Hmdx Definition


Wind Chill Definition


Weather Definition


00:00 14.0 9.3 73   10 14 64.4 97.98     LegendNANA
01:00 13.6 9.5 76   11 15 64.4 98.00     Clear
02:00 13.0 8.6 75   11 16 64.4 98.00     LegendNANA
03:00 12.5 8.7 77   10 12 64.4 98.00     LegendNANA
04:00 10.8 7.9 82   9 4 64.4 98.00     Clear
05:00 11.2 8.4 83   11 13 64.4 98.00     LegendNANA
06:00 10.1 7.6 85   8 8 64.4 98.02     LegendNANA
07:00 11.3 8.7 84   17 3 64.4 98.05     Mainly Clear
08:00 13.8 8.5 70   8 6 64.4 98.04     LegendNANA
09:00 15.6 9.0 65   10 9 64.4 97.98     LegendNANA
10:00 18.3 9.3 56   11 12 64.4 97.90     Mainly Clear
11:00 20.1 9.4 50   11 16 64.4 97.79     LegendNANA
12:00 22.8 9.4 42   10 11 64.4 97.68     LegendNANA
13:00 23.7 9.2 39   8 8 64.4 97.57 25   Mostly Cloudy
14:00 24.5 10.0 39   8 12 64.4 97.46 26   LegendNANA
15:00 26.1 10.5 37   12 8 64.4 97.39 28   LegendNANA
16:00 25.8 10.7 38   36 1 64.4 97.31 27   Mostly Cloudy
17:00 22.1 12.7 55   25 5 64.4 97.26 25   LegendNANA
18:00 20.4 12.4 60   36 1 64.4 97.27     LegendNANA
19:00 20.0 11.1 56   36 1 64.4 97.31     Mostly Cloudy
20:00 17.4 10.0 62   36 3 64.4 97.33     LegendNANA
21:00 16.2 10.2 67   29 5 64.4 97.36     LegendNANA
22:00 14.8 9.7 71   36 1 64.4 97.40     Mainly Clear
23:00 14.2 10.1 76   36 2 64.4 97.42     LegendNANA

Notes on Data Quality.

Legend

  • E = Estimated
  • M = Missing
  • NA = Not Available*
  • [empty] = Indicates an unobserved value
Date modified: